Location: Fuhrbach
(51.5290°N, 10.3385°E)
Time: 04:54:52
(UTC+00:00)

Daily predictions for brighter satellites

Satellite Brightness Start Highest point End
(mag) Time Altitude Azimuth Time Altitude Azimuth Time Altitude Azimuth
ATLAS 3B R/B 4.2 02:35:21 28° NE 02:35:21 28° NE 02:39:40 10° ENE
USA 215 4.1 02:49:52 10° ESE 02:54:07 43° E 02:54:07 43° E
CENTAUR R/B 3.7 02:57:00 46° NNE 02:57:24 46° NNE 03:05:29 10° E
Lacrosse 5 rocket 4.3 03:13:57 17° ENE 03:13:57 17° ENE 03:14:59 10° ENE
USA 238 DEB 3.9 03:25:16 72° E 03:25:16 72° E 03:32:06 10° SE
USA 238 3.9 03:25:21 72° E 03:25:21 72° E 03:32:12 10° SE
Cosmos 2263 Rocket 3.6 03:34:45 31° NNE 03:35:57 34° NE 03:41:03 10° ESE
Cosmos 2154 Rocket 4.3 03:37:48 10° N 03:44:00 63° ENE 03:50:08 10° SSE
ALOS 4.5 03:43:31 10° NE 03:47:20 24° E 03:51:06 10° SE
NOSS 3-1 (C) 4.5 03:54:04 36° N 03:54:04 36° N 04:00:06 10° NE
Cosmos 1610 Rocket 4.5 03:51:41 10° N 03:57:59 82° E 04:04:20 10° SSE
Cosmos 2369 3.8 04:04:58 62° S 04:05:47 73° ESE 04:11:32 10° NNE
Cosmos 1943 Rocket 4.4 04:11:47 12° N 04:11:47 12° N 04:13:04 10° N
NOSS 3-2 (C) 3.9 04:14:24 45° NW 04:17:07 90° NE 04:25:26 10° SE
CZ-2C R/B 3.6 04:13:38 10° N 04:16:19 32° N 04:16:19 32° N
COSMO-SKYMED 1 3.4 04:14:24 10° SSE 04:17:19 43° SSE 04:17:19 43° SSE
Cosmos 1726 4.2 04:16:29 10° SSE 04:19:37 27° E 04:22:46 10° NNE
NOSS 2-2 (C) 4.0 04:22:10 50° ESE 04:22:10 50° ESE 04:25:53 10° NE
Cosmos 1538 Rocket 4.3 04:19:56 24° S 04:23:07 67° ESE 04:28:24 10° NNE
Cosmos 1980 Rocket 2.7 04:19:04 12° S 04:24:10 57° ESE 04:29:44 10° NE
ATLAS 3B R/B 2.9 04:22:36 35° NNW 04:25:33 65° NE 04:32:22 10° ESE
SL-4 R/B 3.9 04:27:50 19° SSE 04:27:50 19° SSE 04:29:02 10° SE
CZ-4B R/B 3.9 04:26:16 10° NNE 04:29:06 39° N 04:29:06 39° N
Cosmos 1697 Rocket 2.5 04:30:20 55° SW 04:31:35 79° WNW 04:37:15 10° NNE
NOSS 2-2 (E) 3.4 04:32:19 71° E 04:32:19 71° E 04:36:22 10° NE
NOSS 3-1 (A) 4.3 04:31:35 33° NNW 04:32:34 35° NNW 04:39:03 10° NE
Cosmos 2369 Rocket 4.4 04:34:24 12° NNW 04:34:30 12° NNW 04:36:23 10° N
STARLINK-43 3.8 04:37:53 58° ENE 04:37:53 58° ENE 04:40:59 10° ENE
NOSS 3-2 (A) 4.1 04:35:57 41° WNW 04:38:28 58° SW 04:46:34 10° SSE
USA 215 3.4 04:33:10 10° SE 04:39:34 57° SW 04:41:29 43° W
Cosmos 2228 3.8 04:39:17 10° S 04:43:34 53° E 04:47:51 10° NNE
Genesis I 3.3 04:44:20 64° NNE 04:44:38 67° NE 04:48:27 10° SE
Cosmos 2227 4.1 04:43:52 36° NW 04:46:17 79° WSW 04:51:55 10° SSE
Cosmos 2181 Rocket 4.5 04:40:31 10° S 04:46:37 61° E 04:52:51 10° NNE
SL-8 Rocket 4.1 04:40:36 10° N 04:46:51 78° ENE 04:53:02 10° SSE
Meteor 1-21 Rocket 4.2 04:41:16 10° NNW 04:47:01 66° W 04:52:52 10° S
FALCON 9 DEB 3.4 04:47:24 67° ENE 04:47:24 67° ENE 04:50:35 10° E
Cosmos 1703 3.8 04:44:27 18° N 04:47:15 58° ENE 04:51:09 10° SSE
CENTAUR R/B 3.1 04:44:11 29° NW 04:48:52 81° SW 04:57:34 10° SE
Cosmos 2341 Rocket 3.9 04:43:43 10° NNW 04:50:01 78° W 04:56:13 10° S
Lacrosse 5 rocket 2.2 04:49:35 40° NNW 04:50:06 42° N 04:54:23 10° ENE
STARLINK-26 3.6 04:50:29 54° SSE 04:50:39 55° SSE 04:54:06 10° ENE
Meteor 2-17 Rocket 4.4 04:45:02 10° NNW 04:51:01 60° W 04:56:57 10° S
COSMOS 2455 3.0 04:46:26 10° SSW 04:52:25 73° ESE 04:58:26 10° NE
ADEOS Rocket 3.4 04:47:09 10° SE 04:52:31 57° ENE 04:58:09 10° N
Cosmos 1371 Rocket 4.3 04:52:51 15° NNW 04:57:14 66° ENE 05:02:31 10° SE
Nadezhda 1 Rocket 4.0 04:51:30 10° SSW 04:57:24 52° WNW 05:03:21 10° N
Cosmos 2278 Rocket 4.4 04:56:02 10° N 04:59:28 16° NNE 05:02:55 10° ENE
CZ-4B DEB 4.2 04:57:15 10° NNE 05:02:52 86° ESE 05:08:24 10° SSW
STARLINK-29 3.0 05:03:38 69° NW 05:03:59 80° NNE 05:07:31 10° E
Cosmos 1953 Rocket 3.4 05:00:27 15° NNW 05:04:10 76° W 05:08:33 10° S
STARLINK-52 3.1 05:04:49 66° NW 05:05:12 78° NNE 05:08:44 10° E
SKYMED 2 4.4 05:02:53 10° SSW 05:05:54 32° SW 05:05:54 32° SW
Cosmos 1953 2.4 05:05:47 38° SW 05:06:57 52° WNW 05:10:57 10° N
STARLINK-80 3.3 05:06:35 56° W 05:07:19 82° NNW 05:11:09 10° ENE
STARLINK-33 4.4 05:05:41 24° SSW 05:07:23 40° SSE 05:10:48 10° E
Orbus 7S? 3.6 05:07:25 42° WSW 05:07:55 45° SW 05:13:18 10° SE
Cosmos 1758 Rocket 3.9 05:08:41 41° W 05:08:58 42° W 05:13:07 10° SSW
ATLAS 2AS CENTAUR R/B 3.4 05:01:11 10° SSW 05:09:04 67° SE 05:16:58 10° NE
STARLINK-66 4.3 05:08:47 23° SSW 05:10:33 42° SSE 05:14:00 10° ENE
USA 116 4.1 05:07:49 10° S 05:12:23 53° W 05:14:32 26° NW
Cosmos 2322 Rocket 3.6 05:08:28 10° S 05:13:42 40° ESE 05:18:59 10° NE
STARLINK-55 4.2 05:11:55 23° SSW 05:13:46 45° SSE 05:17:12 10° ENE
PSLV R/B 3.9 05:10:06 10° N 05:13:48 46° WNW 05:14:30 40° WSW
USA 238 DEB 4.5 05:12:44 27° W 05:15:15 34° WSW 05:21:44 10° S
USA 238 4.5 05:12:49 27° W 05:15:22 34° WSW 05:21:52 10° S
DMSP B5D1-3 4.4 05:10:51 10° S 05:15:56 68° WSW 05:21:03 10° NNW
STARLINK-28 4.0 05:15:07 24° SW 05:16:56 48° SSE 05:20:23 10° ENE
Okean O Rocket 1.6 05:15:24 10° NNE 05:19:53 86° ESE 05:24:20 10° SSW
STARLINK-48 3.3 05:18:28 37° WSW 05:19:55 86° NNW 05:23:49 10° ENE
Cosmos 2263 Rocket 2.2 05:16:28 21° NW 05:20:12 58° WSW 05:25:44 10° S
Cosmos 2218 Rocket 4.0 05:14:37 10° NNW 05:21:03 75° W 05:27:22 10° S
Abrixas rocket 3.7 05:23:33 21° SSW 05:23:49 21° SSW 05:26:13 10° SSE
Lacrosse 5 4.2 05:19:56 10° S 05:23:59 24° SE 05:28:03 10° ENE
METEOR-M 4.1 05:19:32 10° N 05:24:49 60° WNW 05:30:04 10° SSW
ALOS 2.4 05:20:30 10° N 05:25:02 51° WNW 05:29:32 10° SW
Cosmos 864 Rocket 4.4 05:19:21 10° NNW 05:25:34 76° W 05:31:47 10° S
Cosmos 2344 3.7 05:19:26 16° WSW 05:25:44 65° NW 05:34:30 10° NE
Cosmos 2360 4.4 05:21:24 14° SW 05:26:14 51° NW 05:31:51 10° NNE
Cosmos 1624 Rocket 3.9 05:21:12 11° NNW 05:26:16 87° WSW 05:31:28 10° SSE
MOS 1-B 4.3 05:23:19 10° N 05:29:02 61° WNW 05:34:44 10° SW
STARLINK-34 4.2 05:27:30 15° SW 05:30:43 55° SSE 05:34:39 10° ENE
STARLINK-24 4.1 05:29:12 14° SW 05:32:29 55° SSE 05:36:27 10° ENE
STARLINK-42 3.9 05:30:30 15° SW 05:33:26 56° SSE 05:37:09 10° ENE
Cosmos 1844 Rocket 3.4 05:28:03 10° NNW 05:33:34 52° NE 05:39:04 10° SE
NOSS 2-2 (D) 3.7 05:31:55 27° W 05:33:38 46° NW 05:37:59 10° NE
STARLINK-81 4.2 05:30:21 13° SW 05:33:49 53° SSE 05:37:46 10° ENE
Cosmos 1825 Rocket 4.4 05:32:52 25° WNW 05:33:53 28° W 05:37:35 10° SSW
STARLINK-54 4.1 05:32:14 13° SW 05:35:38 57° SSE 05:39:36 10° ENE
STARLINK-77 4.1 05:33:31 12° SW 05:37:06 56° SSE 05:41:04 10° ENE
STARLINK-64 3.9 05:34:22 14° SW 05:37:31 58° SSE 05:41:16 10° ENE
STARLINK-25 4.1 05:35:08 12° SW 05:38:46 57° SSE 05:42:44 10° ENE
Cosmos 2058 Rocket 2.9 05:35:08 10° SSW 05:39:32 75° WNW 05:43:56 10° N
STARLINK-71 4.0 05:37:02 13° SW 05:40:37 61° SSE 05:44:36 10° ENE
Cosmos 2278 4.2 05:36:24 14° WSW 05:41:00 39° NW 05:46:21 10° NNE
CZ-2C R/B 4.2 05:36:33 10° SSE 05:41:03 61° ENE 05:45:31 10° N
Cosmos 2056 Rocket 3.5 05:35:44 10° NNW 05:41:09 71° WSW 05:46:33 10° SSE
Cosmos 1328 4.3 05:38:30 14° NNW 05:41:33 36° W 05:45:13 10° SSW
STARLINK-79 4.0 05:38:16 11° SW 05:42:02 59° SSE 05:46:01 10° ENE
STARLINK-78 4.0 05:39:56 11° SW 05:43:45 60° SSE 05:47:44 10° ENE
STARLINK-57 3.9 05:41:40 11° SW 05:45:29 63° SSE 05:49:29 10° ENE
Meteor 2-10 4.2 05:41:12 10° SSW 05:46:34 51° WNW 05:51:45 10° N
STARLINK-49 3.9 05:43:04 10° SW 05:47:00 62° SSE 05:51:00 10° ENE
STARLINK-27 3.9 05:44:42 10° WSW 05:48:41 64° SSE 05:52:41 10° ENE
Cosmos 923 Rocket 4.0 05:43:40 10° SW 05:48:52 59° WNW 05:54:09 10° NNE
STARLINK-74 3.9 05:46:19 10° WSW 05:50:19 65° SSE 05:54:19 10° ENE
STARLINK-39 3.9 05:47:59 10° WSW 05:51:59 66° SSE 05:55:59 10° ENE
SL-16 R/B 2.3 05:47:14 10° SSW 05:52:54 83° ESE 05:58:37 10° NNE
STARLINK 3.8 05:49:39 10° WSW 05:53:39 67° SSE 05:57:40 10° ENE
Cosmos 1726 3.0 05:51:40 10° SW 05:54:49 27° WNW 05:57:59 10° N
Cosmos 1437 2.8 05:51:56 10° N 05:55:00 72° ENE 05:58:01 10° SSE
STARLINK-60 3.7 05:53:01 19° W 05:55:02 42° SSW 05:58:15 10° SE
STARLINK-69 3.8 05:51:27 10° WSW 05:55:28 71° SSE 05:59:29 10° ENE
COSMO-SKYMED 1 4.4 05:53:13 10° WSW 05:54:33 13° WSW 05:54:33 13° WSW
Cosmos 2366 rocket 4.3 05:49:41 10° NNW 05:55:43 47° W 06:01:44 10° SSW
CZ-2C R/B 4.2 05:53:43 10° NNW 05:55:43 13° NW 05:55:43 13° NW
Cosmos 1606 Rocket 4.3 05:52:37 10° SW 05:56:33 30° WNW 06:00:29 10° N
H-2A R/B 2.7 05:52:45 10° N 05:56:42 76° WNW 06:00:34 10° SSW
STARLINK-21 3.8 05:52:57 10° WSW 05:56:58 70° SSE 06:00:59 10° ENE
Cosmos 1943 Rocket 4.4 05:56:08 10° N 05:57:32 11° NNE 05:58:56 10° NNE
Cosmos 1726 Rocket 4.1 05:54:08 10° SW 05:58:13 35° WNW 06:02:17 10° N
FENGYUN 3A 4.2 05:53:59 10° N 05:58:49 35° WNW 06:03:40 10° SW
STARLINK-45 3.7 05:54:49 10° WSW 05:58:51 75° SSE 06:02:53 10° ENE
CZ-4B R/B 3.3 05:53:42 10° N 05:59:09 56° WNW 06:04:29 10° SW
Cosmos 2058 3.5 05:55:17 10° N 05:59:29 62° ENE 06:03:39 10° SSE
STARLINK-70 3.7 05:56:07 10° WSW 06:00:09 74° SSE 06:04:11 10° ENE
BREEZE-M DEB (TANK) 3.9 05:57:47 12° W 06:01:41 78° S 06:17:09 10° E
Cosmos 2360 Rocket 3.4 05:56:26 10° S 06:01:51 48° ESE 06:07:17 10° NE
STARLINK-76 3.7 05:57:54 10° WSW 06:01:55 73° SSE 06:05:57 10° ENE
STARLINK 3.7 05:59:33 10° WSW 06:03:35 74° SSE 06:07:37 10° ENE
Cosmos 1844 4.0 05:59:00 10° NNW 06:04:36 68° ENE 06:10:08 10° SE
STARLINK-32 3.7 06:01:12 10° WSW 06:05:14 76° SSE 06:09:16 10° ENE
STARLINK-40 3.7 06:02:52 10° WSW 06:06:54 77° SSE 06:10:56 10° ENE
Cosmos 1300 2.7 06:04:26 10° S 06:08:15 87° ESE 06:12:07 10° N
Cosmos 1980 Rocket 2.8 06:03:20 10° WSW 06:08:29 34° NW 06:13:39 10° NNE
STARLINK-44 3.7 06:04:31 10° WSW 06:08:31 78° SSE 06:12:34 10° ENE
STARLINK-61 3.5 06:04:35 10° WSW 06:08:32 86° NNW 06:12:31 10° ENE
STARLINK-37 3.6 06:06:16 10° WSW 06:10:18 81° SSE 06:14:21 10° ENE
Helios 1A Rocket 3.4 06:07:23 10° N 06:11:14 39° WNW 06:15:05 10° SW
STARLINK-36 3.6 06:07:49 10° WSW 06:11:52 80° SSE 06:15:54 10° ENE
NOSS 2-2 (C) 4.4 06:09:35 12° W 06:12:41 30° NNW 06:16:51 10° NE
CZ-2C R/B 3.6 06:08:08 10° SE 06:13:11 48° ENE 06:18:23 10° N
STARLINK-68 3.6 06:09:27 10° WSW 06:13:29 84° SSE 06:17:32 10° ENE
Cosmos 1908 4.0 06:10:17 10° SW 06:13:46 30° WNW 06:17:17 10° N
STARLINK-75 3.4 06:10:24 10° WSW 06:14:15 87° SSE 06:18:07 10° ENE
STARLINK-63 3.6 06:11:13 10° WSW 06:15:15 84° SSE 06:19:18 10° ENE
STARLINK-43 3.4 06:12:01 12° WNW 06:15:23 75° N 06:19:05 10° E
ATLAS 3B R/B 3.3 06:09:52 10° NW 06:16:00 39° WSW 06:22:16 10° S
Cosmos 1697 Rocket 3.9 06:12:10 10° W 06:16:29 22° NW 06:20:50 10° NNE
STARLINK-35 3.6 06:12:45 10° WSW 06:16:48 83° SSE 06:20:50 10° ENE
BREEZE-M DEB (TANK) 3.4 06:08:07 10° W 06:16:50 86° S 06:20:44 10° E
NOAA 12 4.3 06:12:00 10° NNE 06:17:20 82° ESE 06:22:39 10° SSW
Cosmos 1076 Rocket 3.5 06:13:28 10° NNW 06:17:52 77° W 06:22:13 10° S
Cosmos 1408 4.3 06:14:49 10° N 06:18:16 34° ENE 06:21:41 10° SE
STARLINK-51 3.6 06:14:26 10° WSW 06:18:28 84° SSE 06:22:31 10° ENE
IRS-1C Rocket 4.1 06:13:22 10° NNE 06:18:40 78° WNW 06:23:55 10° SSW
STARLINK-30 3.6 06:16:03 10° WSW 06:20:06 85° SSE 06:24:09 10° ENE
Cosmos 2369 Rocket 4.4 06:19:15 10° N 06:21:21 12° NNE 06:23:28 10° NE
Cosmos 2228 4.3 06:18:07 10° WSW 06:21:27 21° WNW 06:24:48 10° NNW
STARLINK-72 3.6 06:17:44 10° WSW 06:21:47 86° SSE 06:25:49 10° ENE
STARLINK-41 3.4 06:18:30 10° WSW 06:22:21 87° SSE 06:26:13 10° ENE
STARLINK-50 3.6 06:19:22 10° WSW 06:23:25 87° SSE 06:27:27 10° ENE
Cosmos 1455 4.4 06:20:19 10° SSE 06:23:43 30° E 06:27:07 10° NNE
Cosmos 1452 Rocket 3.5 06:18:30 10° NNW 06:23:48 80° WSW 06:29:02 10° SSE
SMAP 3.1 06:19:21 10° N 06:23:55 56° WNW 06:28:28 10° SSW
FALCON 9 DEB 4.0 06:20:43 10° W 06:24:03 40° SSW 06:27:21 10° SE
NOSS 3-4 (A) 3.5 06:18:40 10° SW 06:24:43 71° NW 06:31:17 10° NE
NOSS 3-4 (C) 3.5 06:18:46 10° SW 06:24:50 72° NW 06:31:23 10° NE
STARLINK-59 3.6 06:21:08 10° WSW 06:25:10 90° S 06:29:14 10° ENE
Alouette 2 Rocket 3.3 06:21:38 10° SSW 06:26:05 82° WNW 06:29:42 10° NNE
STARLINK-56 3.6 06:22:42 10° WSW 06:26:45 89° SE 06:30:48 10° ENE
Envisat 3.0 06:22:32 10° NNE 06:27:40 84° WNW 06:32:45 10° SSW
STARLINK-26 3.2 06:24:20 10° W 06:27:51 69° N 06:31:22 10° E
Starlink (trailer) 3.6 06:24:21 10° WSW 06:28:23 90° NNW 06:32:26 10° ENE
STARLINK 3.4 06:25:19 10° WSW 06:29:08 89° SSE 06:32:59 10° ENE
Lacrosse 5 rocket 2.0 06:25:28 10° WNW 06:29:56 52° NNE 06:34:14 10° E
STARLINK-38 3.6 06:26:00 10° WSW 06:30:02 89° NNW 06:34:06 10° ENE
STARLINK-65 3.6 06:27:38 10° WSW 06:31:41 88° N 06:35:44 10° ENE
In-Cosmos 22 Rocket 4.1 06:26:19 10° NNW 06:31:43 72° W 06:37:00 10° S
Feng Yun 1-1 Rocket 4.4 06:26:18 10° NNE 06:32:14 70° WNW 06:38:04 10° SSW
Cosmos 1340 Rocket 2.8 06:28:40 10° S 06:32:35 89° ESE 06:36:32 10° NNE
CORIOLIS 4.1 06:27:59 10° N 06:33:19 66° WNW 06:38:37 10° SSW
STARLINK-53 3.5 06:29:24 10° WSW 06:33:27 86° NNW 06:37:29 10° ENE
AQUARIUS 4.4 06:30:05 10° N 06:34:25 47° WNW 06:38:44 10° SW
CENTAUR R/B 4.2 06:32:28 10° WNW 06:38:54 26° WSW 06:45:41 10° SSW
